Tiempo atmosférico en la estación meteorológica de Agaete, Las Palmas (5 m.)



Fecha
DESCASC
Temp. máxima en grados centígrados (hora)
DESCASC
Temp. mínima en grados centígrados (hora)
DESCASC
Temp. media en grados centígrados
DESCASC
Racha de viento máxima en m/sg (hora)
DESCASC
Velocidad máxima media en intervalos de 10 minutos(hora)
DESCASC
Precipitaciones diarias en mm
DESCASC
Precipitaciones de 00:00 a 06:00 en mm
DESCASC
Precipitaciones de 06:00 a 12:00 en mm
DESCASC
Precipitaciones de 12:00 a 18:00 en mm
DESCASC
Precipitaciones de 18:00 a 24:00 en mm
DESCASC
13-10-2019 25.7 (10:20) 20.1 (04:30) 22.9 6.94 (18:20) 5.83 (18:20) 0 0 0 0 0
12-10-2019 24.7 (12:00) 21.5 (23:59) 23.1 10.56 (14:10) 6.94 (14:10) 0 0 0 0 0
11-10-2019 25.5 (11:10) 21.1 (06:40) 23.3 8.89 (16:10) 6.39 (14:00) 0 0 0 0 0
10-10-2019 26.2 (15:00) 21.8 (00:00) 24 9.72 (13:10) 6.94 (16:30) 0 0 0 0 0
09-10-2019 25.4 (16:30) 21.6 (00:00) 23.5 13.06 (13:10) 8.61 (12:20) 0 0 0 0 0
08-10-2019 25.6 (14:10) 21.7 (00:00) 23.7 14.17 (10:50) 8.33 (11:00) 0 0 0 0 0
07-10-2019 26.5 (14:20) 21.9 (00:00) 24.2 15.83 (03:30) 9.44 (05:00) 0 0 0 0 0
06-10-2019 25.4 (15:00) 21.6 (00:00) 23.5 14.44 (12:50) 8.61 (16:10) 0 0 0 0 0
05-10-2019 26.3 (16:10) 22.5 (00:00) 24.4 13.89 (11:50) 7.78 (14:40) 0 0 0 0 0
04-10-2019 25.2 (14:10) 22.2 (00:00) 23.7 15.83 (14:10) 10.28 (14:50) 0 0 0 0 0
03-10-2019 30.8 (02:50) 22.7 (00:00) 26.8 16.39 (23:10) 10 (23:20) 0 0 0 0 0
02-10-2019 30.2 (07:40) 22.9 (00:00) 26.6 11.94 (07:30) 7.22 (07:50) 0 0 0 0 0
01-10-2019 31.7 (15:10) 22.7 (00:00) 27.2 13.33 (01:50) 6.67 (11:00) 0 0 0 0 0
30-09-2019 27.4 (13:10) 21.8 (00:00) 24.6 14.44 (05:00) 9.44 (04:50) 0 0 0 0 0
29-09-2019 28.7 (15:30) 22 (00:00) 25.4 13.89 (06:30) 8.33 (06:30) 0 0 0 0 0
28-09-2019 25.8 (14:50) 21.9 (00:00) 23.8 16.94 (14:10) 8.61 (08:50) 0 0 0 0 0
27-09-2019 26 (15:20) 22.3 (00:00) 24.1 16.11 (20:10) 8.89 (11:00) 0 0 0 0 0
26-09-2019 26 (12:10) 22.5 (00:00) 24.3 16.39 (11:10) 9.72 (13:00) 0 0 0 0 0
25-09-2019 25.7 (15:20) 21.9 (00:00) 23.8 13.61 (13:40) 8.33 (12:10) 0 0 0 0 0
24-09-2019 25.6 (14:20) 21.8 (00:00) 23.7 12.5 (17:10) 7.5 (06:50) 0 0 0 0 0
23-09-2019 26.1 (14:10) 22.1 (00:00) 24.1 13.89 (12:30) 9.17 (15:00) 0 0 0 0 0
22-09-2019 27.1 (13:30) 22.2 (00:00) 24.7 13.33 (13:10) 10 (14:50) 0.2 0 0 0 0.2
21-09-2019 25.5 (19:20) 20.6 (00:00) 23.1 9.72 (14:10) 7.22 (15:40) 0 0 0 0 0
20-09-2019 26.6 (15:50) 22.1 (00:00) 24.4 15 (14:10) 10.83 (16:40) 0 0 0 0 0
19-09-2019 25.7 (17:10) 21.9 (00:00) 23.8 14.44 (12:00) 9.72 (12:00) 0 0 0 0 0
18-09-2019 26.2 (15:10) 21.8 (00:00) 24 15.28 (13:30) 8.61 (14:10) 0 0 0 0 0
17-09-2019 25.8 (13:30) 22.3 (00:00) 24 15 (17:10) 7.78 (16:40) 0.2 0.2 0 0 0
16-09-2019 29 (10:00) 22.5 (00:00) 25.8 12.22 (06:00) 7.78 (06:50) 1.4 0 1 0.4 0

Gráficas

Temp. máximas Temp. mínimas Temp. medias Precipitaciones Rachas de viento máximas Velocidades máximas media en intervalos de 10 minutos

Datos horarios

Fecha y hora oficial Temperatura (ºC) Velocidad del viento (km/h) Dirección del viento Racha (km/h) Dirección de racha Precipitación (mm) Presión (hPa) Tendencia (hPa) Humedad (%)
2019-10-15 23:00:00 21.9 27 Nordeste 46 Nordeste 0 -- -- 65
2019-10-15 22:00:00 21.9 22 Nordeste 42 Nordeste 0 -- -- 64
2019-10-15 21:00:00 21.9 26 Nordeste 43 Nordeste 0 -- -- 63
2019-10-15 20:00:00 22.1 27 Nordeste 45 Nordeste 0 -- -- 59
2019-10-15 19:00:00 22.8 22 Nordeste 45 Nordeste 0 -- -- 55
2019-10-15 18:00:00 23.5 26 Nordeste 45 Nordeste 0 -- -- 56
2019-10-15 17:00:00 23.8 23 Nordeste 48 Nordeste 0 -- -- 55
2019-10-15 16:00:00 23.5 29 Nordeste 46 Nordeste 0 -- -- 58
2019-10-15 15:00:00 23.3 28 Nordeste 45 Nordeste 0 -- -- 62
2019-10-15 14:00:00 24 24 Nordeste 44 Norte 0 -- -- 61
2019-10-15 13:00:00 24.3 23 Nordeste 40 Nordeste 0 -- -- 59
2019-10-15 12:00:00 24.1 20 Nordeste 35 Nordeste 0 -- -- 57
2019-10-15 11:00:00 23.7 20 Nordeste 33 Nordeste 0 -- -- 58
2019-10-15 10:00:00 22.6 23 Nordeste 39 Nordeste 0 -- -- 61
2019-10-15 09:00:00 21.6 16 Nordeste 39 Este 0 -- -- 63
2019-10-15 08:00:00 21.2 26 Nordeste 40 Nordeste 0 -- -- 66
2019-10-15 07:00:00 21.3 22 Nordeste 36 Nordeste 0 -- -- 69
2019-10-15 06:00:00 21.3 23 Nordeste 37 Nordeste 0 -- -- 71
2019-10-15 05:00:00 21.1 18 Nordeste 35 Nordeste 0 -- -- 71
2019-10-15 04:00:00 21.1 20 Nordeste 37 Nordeste 0 -- -- 70
2019-10-15 03:00:00 21.2 17 Nordeste 36 Nordeste 0 -- -- 69
2019-10-15 02:00:00 21.3 19 Nordeste 33 Nordeste 0 -- -- 68
2019-10-15 01:00:00 21.5 18 Nordeste 36 Nordeste 0 -- -- 66
2019-10-15 00:00:00 21.5 18 Nordeste 32 Nordeste 0 -- -- 66
2019-10-14 23:00:00 21.7 17 Nordeste 36 Nordeste 0 -- -- 61
2019-10-14 22:00:00 22.1 22 Nordeste 38 Nordeste 0 -- -- 57
2019-10-14 21:00:00 21.9 18 Nordeste 34 Este 0 -- -- 65
2019-10-14 20:00:00 22.2 21 Nordeste 40 Nordeste 0 -- -- 64
2019-10-14 19:00:00 23.2 21 Nordeste 38 Nordeste 0 -- -- 60
2019-10-14 18:00:00 23.8 23 Nordeste 39 Nordeste 0 -- -- 59
2019-10-14 17:00:00 24.4 21 Nordeste 44 Nordeste 0 -- -- 58
2019-10-14 16:00:00 24.4 24 Nordeste 43 Nordeste 0 -- -- 56
2019-10-14 15:00:00 24 26 Nordeste 41 Nordeste 0 -- -- 59
2019-10-14 14:00:00 24 24 Nordeste 42 Nordeste 0 -- -- 59
2019-10-14 13:00:00 23.6 27 Nordeste 39 Nordeste 0 -- -- 61
2019-10-14 12:00:00 23.9 20 Nordeste 37 Nordeste 0 -- -- 64
2019-10-14 11:00:00 22.9 22 Nordeste 36 Nordeste 0 -- -- 66
2019-10-14 10:00:00 22.7 18 Nordeste 32 Nordeste 0 -- -- 70
2019-10-14 09:00:00 21.6 15 Nordeste 30 Nordeste 0 -- -- 73
2019-10-14 08:00:00 21.3 14 Nordeste 22 Nordeste 0 -- -- 75
2019-10-14 07:00:00 21.3 12 Nordeste 28 Nordeste 0 -- -- 74
2019-10-14 06:00:00 22.2 12 Nordeste 25 Este 0 -- -- 69
2019-10-14 05:00:00 21.9 9 Nordeste 17 Nordeste 0 -- -- 68
2019-10-14 04:00:00 21.8 10 Nordeste 21 Este 0 -- -- 71
2019-10-14 03:00:00 21.3 9 Nordeste 14 Nordeste 0 -- -- 67
2019-10-14 02:00:00 21.8 6 Nordeste 19 Sudeste 0 -- -- 64
2019-10-14 01:00:00 21.7 10 Este 19 Este 0 -- -- 56
2019-10-14 00:00:00 22.2 6 Nordeste 14 Este 0 -- -- 60
2019-10-13 23:00:00 22.5 5 Nordeste 17 Nordeste 0 -- -- 57
2019-10-13 22:00:00 23.1 6 Este 16 Nordeste 0 -- -- 53
2019-10-13 21:00:00 23.4 5 Nordeste 16 Este 0 -- -- 54
2019-10-13 20:00:00 23.6 9 Nordeste 19 Norte 0 -- -- 54
2019-10-13 19:00:00 24.6 13 Norte 25 Norte 0 -- -- 53
2019-10-13 18:00:00 24.9 18 Norte 22 Norte 0 -- -- 57
2019-10-13 17:00:00 25.2 7 Noroeste 11 Noroeste 0 -- -- 54
2019-10-13 16:00:00 24.7 6 Noroeste 13 Noroeste 0 -- -- 54
2019-10-13 15:00:00 25.4 5 Oeste 14 Noroeste 0 -- -- 53
2019-10-13 14:00:00 24.7 5 Oeste 9 Oeste 0 -- -- 54
2019-10-13 13:00:00 24.3 4 Oeste 8 Sur 0 -- -- 56
2019-10-13 12:00:00 24.4 4 Sudoeste 8 Sudoeste 0 -- -- 55
2019-10-13 11:00:00 24.8 3 Oeste 7 Sur 0 -- -- 54
2019-10-13 10:00:00 25.4 5 Sur 12 Este 0 -- -- 53
2019-10-13 09:00:00 21.6 7 Este 14 Este 0 -- -- 59
2019-10-13 08:00:00 20.7 10 Este 17 Este 0 -- -- 61
2019-10-13 07:00:00 20.4 12 Este 15 Este 0 -- -- 60
2019-10-13 06:00:00 20.5 7 Este 15 Este 0 -- -- 60
2019-10-13 05:00:00 20.3 9 Este 15 Este 0 -- -- 58
2019-10-13 04:00:00 20.4 9 Este 13 Este 0 -- -- 58
2019-10-13 03:00:00 20.9 6 Nordeste 13 Sudeste 0 -- -- 59
2019-10-13 02:00:00 20.8 3 Este 12 Nordeste 0 -- -- 63
2019-10-13 01:00:00 21.3 6 Nordeste 23 Nordeste 0 -- -- 64
2019-10-13 00:00:00 21.5 13 Nordeste 21 Nordeste 0 -- -- 68
2019-10-12 23:00:00 21.6 13 Nordeste 21 Nordeste 0 -- -- 70
2019-10-12 22:00:00 21.8 13 Nordeste 19 Nordeste 0 -- -- 70
2019-10-12 21:00:00 22.1 12 Nordeste 22 Nordeste 0 -- -- 69
2019-10-12 20:00:00 22.4 16 Nordeste 25 Nordeste 0 -- -- 69
2019-10-12 19:00:00 23.2 17 Norte 24 Norte 0 -- -- 64
2019-10-12 18:00:00 23.2 13 Norte 22 Norte 0 -- -- 66
2019-10-12 17:00:00 23.6 13 Norte 28 Norte 0 -- -- 62
2019-10-12 16:00:00 23.4 23 Norte 29 Norte 0 -- -- 67
2019-10-12 15:00:00 23.7 22 Norte 38 Norte 0 -- -- 62
2019-10-12 14:00:00 23.9 19 Norte 28 Norte 0 -- -- 59
2019-10-12 13:00:00 24.4 15 Norte 30 Nordeste 0 -- -- 59
2019-10-12 12:00:00 24.7 15 Nordeste 28 Nordeste 0 -- -- 60
2019-10-12 11:00:00 23.1 21 Norte 26 Norte 0 -- -- 71
2019-10-12 10:00:00 22.7 13 Norte 22 Nordeste 0 -- -- 71
2019-10-12 09:00:00 22.5 14 Nordeste 21 Nordeste 0 -- -- 63
2019-10-12 08:00:00 22 13 Nordeste 22 Nordeste 0 -- -- 70
2019-10-12 07:00:00 22.3 9 Nordeste 18 Nordeste 0 -- -- 65
2019-10-12 06:00:00 21.9 9 Nordeste 15 Nordeste 0 -- -- 68
2019-10-12 05:00:00 21.9 8 Este 21 Este 0 -- -- 69
2019-10-12 04:00:00 22.1 12 Nordeste 23 Nordeste 0 -- -- 71
2019-10-12 03:00:00 22.1 10 Nordeste 18 Nordeste 0 -- -- 71
2019-10-12 02:00:00 22.3 8 Nordeste 18 Nordeste 0 -- -- 67
2019-10-12 01:00:00 22 7 Nordeste 15 Este 0 -- -- 69
2019-10-12 00:00:00 22.1 7 Nordeste 19 Este 0 -- -- 69
2019-10-11 23:00:00 22.2 8 Nordeste 17 Nordeste 0 -- -- 70
2019-10-11 22:00:00 22.5 9 Nordeste 18 Este 0 -- -- 69
2019-10-11 21:00:00 22.6 10 Nordeste 19 Nordeste 0 -- -- 70
2019-10-11 20:00:00 23 12 Nordeste 23 Norte 0 -- -- 65
2019-10-11 19:00:00 23.8 16 Norte 24 Norte 0 -- -- 61
2019-10-11 18:00:00 24.1 15 Norte 25 Norte 0 -- -- 61
2019-10-11 17:00:00 24.7 18 Norte 32 Norte 0 -- -- 61
2019-10-11 16:00:00 24 17 Norte 26 Norte 0 -- -- 64
2019-10-11 15:00:00 24.9 16 Norte 30 Nordeste 0 -- -- 62
2019-10-11 14:00:00 24.3 23 Norte 30 Norte 0 -- -- 58
2019-10-11 13:00:00 25.3 18 Norte 30 Norte 0 -- -- 50
2019-10-11 12:00:00 24.7 19 Norte 28 Norte 0 -- -- 52
2019-10-11 11:00:00 25.2 11 Nordeste 21 Este 0 -- -- 49
2019-10-11 10:00:00 24.4 9 Este 18 Este 0 -- -- 52
2019-10-11 09:00:00 23 9 Sudeste 17 Este 0 -- -- 54
2019-10-11 08:00:00 21.7 9 Este 23 Este 0 -- -- 59
2019-10-11 07:00:00 21.5 9 Este 19 Nordeste 0 -- -- 58
2019-10-11 06:00:00 21.5 10 Este 20 Este 0 -- -- 57
2019-10-11 05:00:00 21.8 10 Este 18 Sudeste 0 -- -- 56
2019-10-11 04:00:00 21.3 8 Sudeste 12 Este 0 -- -- 60
2019-10-11 03:00:00 21.8 6 Este 17 Este 0 -- -- 59
2019-10-11 02:00:00 21.7 6 Este 14 Nordeste 0 -- -- 62
2019-10-11 01:00:00 21.9 10 Nordeste 14 Nordeste 0 -- -- 68
2019-10-11 00:00:00 22.3 9 Este 20 Este 0 -- -- 68
2019-10-10 23:00:00 22.5 11 Nordeste 23 Este 0 -- -- 72
2019-10-10 22:00:00 22.8 12 Nordeste 21 Este 0 -- -- 71
2019-10-10 21:00:00 23.1 12 Nordeste 25 Nordeste 0 -- -- 70
2019-10-10 20:00:00 23.3 17 Nordeste 27 Nordeste 0 -- -- 68
2019-10-10 19:00:00 24 17 Nordeste 28 Nordeste 0 -- -- 64
2019-10-10 18:00:00 25.1 15 Nordeste 29 Nordeste 0 -- -- 61
2019-10-10 17:00:00 26.1 13 Nordeste 32 Norte 0 -- -- 56
2019-10-10 16:00:00 25.8 17 Norte 32 Nordeste 0 -- -- 54
2019-10-10 15:00:00 26.2 15 Norte 30 Norte 0 -- -- 52
2019-10-10 14:00:00 25.3 18 Nordeste 35 Este 0 -- -- 53
2019-10-10 13:00:00 25.2 15 Nordeste 29 Norte 0 -- -- 58
2019-10-10 12:00:00 24.9 18 Nordeste 34 Nordeste 0 -- -- 59
2019-10-10 11:00:00 24.3 20 Nordeste 34 Nordeste 0 -- -- 60
2019-10-10 10:00:00 23.8 18 Nordeste 30 Nordeste 0 -- -- 63
2019-10-10 09:00:00 22.7 10 Nordeste 28 Nordeste 0 -- -- 63
2019-10-10 08:00:00 21.8 15 Nordeste 25 Nordeste 0 -- -- 65
2019-10-10 07:00:00 22.3 11 Nordeste 31 Este 0 -- -- 63
2019-10-10 06:00:00 22.1 12 Nordeste 24 Nordeste 0 -- -- 65
2019-10-10 05:00:00 22.1 13 Nordeste 29 Nordeste 0 -- -- 63
2019-10-10 04:00:00 22.1 18 Nordeste 30 Nordeste 0 -- -- 67
2019-10-10 03:00:00 22.3 17 Norte 29 Norte 0 -- -- 67
2019-10-10 02:00:00 22.3 13 Nordeste 25 Nordeste 0 -- -- 62
2019-10-10 01:00:00 22.5 17 Nordeste 31 Nordeste 0 -- -- 62
2019-10-10 00:00:00 22.5 17 Nordeste 28 Nordeste 0 -- -- 69
2019-10-09 23:00:00 22.7 14 Nordeste 28 Nordeste 0 -- -- 68
2019-10-09 22:00:00 22.9 14 Nordeste 27 Este 0 -- -- 63
2019-10-09 21:00:00 22.9 15 Nordeste 31 Nordeste 0 -- -- 62
2019-10-09 20:00:00 22.9 20 Nordeste 40 Nordeste 0 -- -- 63
2019-10-09 19:00:00 23.6 23 Nordeste 38 Nordeste 0 -- -- 62
2019-10-09 18:00:00 24.5 17 Norte 43 Norte 0 -- -- 58
2019-10-09 17:00:00 24.4 24 Norte 39 Norte 0 -- -- 62
2019-10-09 16:00:00 25.1 20 Norte 40 Norte 0 -- -- 56
2019-10-09 15:00:00 24.8 18 Nordeste 40 Norte 0 -- -- 57
2019-10-09 14:00:00 24.8 22 Nordeste 47 Nordeste 0 -- -- 57
2019-10-09 13:00:00 24.2 24 Norte 44 Nordeste 0 -- -- 60
2019-10-09 12:00:00 23.9 24 Nordeste 44 Norte 0 -- -- 60
2019-10-09 11:00:00 23.2 23 Nordeste 46 Norte 0 -- -- 62
2019-10-09 10:00:00 22.8 23 Nordeste 42 Nordeste 0 -- -- 65
2019-10-09 09:00:00 22 21 Nordeste 35 Nordeste 0 -- -- 66
2019-10-09 08:00:00 21.6 19 Nordeste 39 Nordeste 0 -- -- 66
2019-10-09 07:00:00 21.6 21 Nordeste 38 Nordeste 0 -- -- 66
2019-10-09 06:00:00 21.7 20 Nordeste 34 Nordeste 0 -- -- 67
2019-10-09 05:00:00 21.8 21 Nordeste 36 Norte 0 -- -- 68
2019-10-09 04:00:00 21.8 19 Nordeste 42 Norte 0 -- -- 66
2019-10-09 03:00:00 21.9 21 Nordeste 42 Norte 0 -- -- 69
2019-10-09 02:00:00 21.8 25 Nordeste 41 Nordeste 0 -- -- 69
2019-10-09 01:00:00 21.8 22 Nordeste 37 Nordeste 0 -- -- 70
2019-10-09 00:00:00 22 14 Nordeste 31 Norte 0 -- -- 71
2019-10-08 23:00:00 22.1 17 Nordeste 34 Norte 0 -- -- 71
2019-10-08 22:00:00 22.3 17 Nordeste 35 Nordeste 0 -- -- 71
2019-10-08 21:00:00 22.3 18 Nordeste 33 Nordeste 0 -- -- 69
2019-10-08 20:00:00 22.5 19 Norte 34 Norte 0 -- -- 70
2019-10-08 19:00:00 23.5 19 Nordeste 40 Norte 0 -- -- 65
2019-10-08 18:00:00 24.1 20 Norte 35 Norte 0 -- -- 65
2019-10-08 17:00:00 24.7 19 Norte 39 Norte 0 -- -- 62
2019-10-08 16:00:00 25.5 19 Norte 35 Norte 0 -- -- 61
2019-10-08 15:00:00 25.2 19 Nordeste 40 Este 0 -- -- 60
2019-10-08 14:00:00 25.4 16 Nordeste 43 Norte 0 -- -- 61
2019-10-08 13:00:00 24.7 25 Nordeste 48 Nordeste 0 -- -- 63
2019-10-08 12:00:00 24.1 26 Nordeste 51 Nordeste 0 -- -- 65
2019-10-08 11:00:00 23.4 30 Nordeste 51 Nordeste 0 -- -- 67
2019-10-08 10:00:00 22.9 25 Nordeste 48 Nordeste 0 -- -- 69
2019-10-08 09:00:00 22.2 24 Nordeste 41 Norte 0 -- -- 71
2019-10-08 08:00:00 21.7 21 Nordeste 38 Nordeste 0 -- -- 73
2019-10-08 07:00:00 21.7 19 Nordeste 38 Este 0 -- -- 73
2019-10-08 06:00:00 21.9 18 Nordeste 39 Nordeste 0 -- -- 72
2019-10-08 05:00:00 22 16 Nordeste 35 Nordeste 0 -- -- 72
2019-10-08 04:00:00 22.2 18 Nordeste 38 Este 0 -- -- 72
2019-10-08 03:00:00 22.3 15 Nordeste 33 Este 0 -- -- 71
2019-10-08 02:00:00 22.2 17 Este 37 Este 0 -- -- 71
2019-10-08 01:00:00 22.2 17 Nordeste 39 Este 0 -- -- 71
2019-10-08 00:00:00 22.3 18 Nordeste 38 Nordeste 0 -- -- 70
2019-10-07 23:00:00 22.5 19 Nordeste 42 Nordeste 0 -- -- 70
2019-10-07 22:00:00 22.6 21 Nordeste 35 Norte 0 -- -- 70
2019-10-07 21:00:00 22.8 19 Nordeste 36 Nordeste 0 -- -- 70
2019-10-07 20:00:00 23 19 Nordeste 36 Nordeste 0 -- -- 70
2019-10-07 19:00:00 23.9 18 Nordeste 36 Nordeste 0 -- -- 66
2019-10-07 18:00:00 25.1 15 Nordeste 31 Nordeste 0 -- -- 63
2019-10-07 17:00:00 25.9 16 Norte 32 Nordeste 0 -- -- 62
2019-10-07 16:00:00 25.6 18 Norte 33 Norte 0 -- -- 62
2019-10-07 15:00:00 26.2 15 Nordeste 30 Norte 0 -- -- 59
2019-10-07 14:00:00 26.2 12 Nordeste 29 Nordeste 0 -- -- 57
2019-10-07 13:00:00 25.7 14 Nordeste 36 Este 0 -- -- 60
2019-10-07 12:00:00 25 18 Nordeste 36 Nordeste 0 -- -- 61
2019-10-07 11:00:00 24.3 13 Nordeste 46 Nordeste 0 -- -- 63
2019-10-07 10:00:00 23.3 24 Nordeste 43 Nordeste 0 -- -- 65
2019-10-07 09:00:00 22.4 24 Nordeste 56 Nordeste 0 -- -- 68
2019-10-07 08:00:00 22 24 Nordeste 49 Nordeste 0 -- -- 70
2019-10-07 07:00:00 22 26 Nordeste 57 Este 0 -- -- 68
2019-10-07 06:00:00 22 26 Nordeste 53 Nordeste 0 -- -- 69
2019-10-07 05:00:00 22 34 Nordeste 57 Nordeste 0 -- -- 70
2019-10-07 04:00:00 22 23 Norte 57 Nordeste 0 -- -- 71
2019-10-07 03:00:00 22 24 Norte 47 Norte 0 -- -- 70
2019-10-07 02:00:00 22.1 21 Norte 51 Nordeste 0 -- -- 70
2019-10-07 01:00:00 22.2 30 Nordeste 49 Nordeste 0 -- -- 68
2019-10-07 00:00:00 22.4 28 Nordeste 45 Nordeste 0 -- -- 68
2019-10-06 23:00:00 22.6 21 Nordeste 43 Nordeste 0 -- -- 69
2019-10-06 22:00:00 22.8 22 Nordeste 45 Nordeste 0 -- -- 69
2019-10-06 21:00:00 22.9 22 Nordeste 42 Norte 0 -- -- 68
2019-10-06 20:00:00 23 27 Nordeste 52 Nordeste 0 -- -- 67
2019-10-06 19:00:00 23.8 28 Nordeste 45 Norte 0 -- -- 62
2019-10-06 18:00:00 24.5 25 Nordeste 48 Nordeste 0 -- -- 62
2019-10-06 17:00:00 24.8 25 Nordeste 52 Nordeste 0 -- -- 60
2019-10-06 16:00:00 25 27 Nordeste 51 Nordeste 0 -- -- 61
2019-10-06 15:00:00 25.4 23 Nordeste 51 Nordeste 0 -- -- 57
2019-10-06 14:00:00 25 29 Nordeste 49 Nordeste 0 -- -- 62
2019-10-06 13:00:00 24.7 27 Nordeste 52 Nordeste 0 -- -- 62
2019-10-06 12:00:00 24.2 25 Norte 50 Norte 0 -- -- 64
2019-10-06 11:00:00 24 24 Nordeste 47 Nordeste 0 -- -- 62
2019-10-06 10:00:00 23.3 23 Nordeste 39 Nordeste 0 -- -- 68
2019-10-06 09:00:00 22.5 22 Nordeste 39 Nordeste 0 -- -- 71
2019-10-06 08:00:00 22.3 24 Nordeste 39 Nordeste 0 -- -- 72
2019-10-06 07:00:00 22 24 Nordeste 45 Nordeste 0 -- -- 76
2019-10-06 06:00:00 22 23 Nordeste 43 Norte 0 -- -- 75
2019-10-06 05:00:00 21.8 23 Nordeste 43 Nordeste 0 -- -- 77
2019-10-06 04:00:00 22 26 Nordeste 40 Nordeste 0 -- -- 75
2019-10-06 03:00:00 22.4 22 Nordeste 39 Nordeste 0 -- -- 74
2019-10-06 02:00:00 22.9 22 Nordeste 49 Nordeste 0 -- -- 69
2019-10-06 01:00:00 22.8 19 Nordeste 39 Nordeste 0 -- -- 70
2019-10-06 00:00:00 22.6 19 Nordeste 40 Nordeste 0 -- -- 72
2019-10-05 23:00:00 22.8 24 Nordeste 37 Nordeste 0 -- -- 72
2019-10-05 22:00:00 22.9 22 Nordeste 40 Nordeste 0 -- -- 70
2019-10-05 21:00:00 23 19 Nordeste 38 Nordeste 0 -- -- 71
2019-10-05 20:00:00 23.5 24 Nordeste 44 Nordeste 0 -- -- 67
2019-10-05 19:00:00 24 23 Nordeste 43 Norte 0 -- -- 69
2019-10-05 18:00:00 24.8 24 Nordeste 50 Nordeste 0 -- -- 66
2019-10-05 17:00:00 24.9 27 Nordeste 43 Nordeste 0 -- -- 65
2019-10-05 16:00:00 26 28 Nordeste 42 Nordeste 0 -- -- 61
2019-10-05 15:00:00 25.6 27 Nordeste 46 Nordeste 0 -- -- 64
2019-10-05 14:00:00 25.3 26 Nordeste 43 Nordeste 0 -- -- 64
2019-10-05 13:00:00 25.6 23 Nordeste 44 Nordeste 0 -- -- 62
2019-10-05 12:00:00 25.2 24 Nordeste 50 Nordeste 0 -- -- 64
2019-10-05 11:00:00 24.8 24 Nordeste 46 Nordeste 0 -- -- 64
2019-10-05 10:00:00 24.1 23 Nordeste 42 Nordeste 0 -- -- 68
2019-10-05 09:00:00 23.6 20 Nordeste 42 Nordeste 0 -- -- 69
2019-10-05 08:00:00 23.2 21 Nordeste 37 Norte 0 -- -- 71
2019-10-05 07:00:00 23.2 22 Nordeste 40 Nordeste 0 -- -- 68
2019-10-05 06:00:00 23 15 Nordeste 39 Nordeste 0 -- -- 68
2019-10-05 05:00:00 22.9 18 Nordeste 44 Norte 0 -- -- 68
2019-10-05 04:00:00 22.8 26 Nordeste 41 Nordeste 0 -- -- 69
2019-10-05 03:00:00 22.7 24 Nordeste 42 Nordeste 0 -- -- 69
2019-10-05 02:00:00 22.5 20 Norte 39 Nordeste 0 -- -- 72
2019-10-05 01:00:00 22.7 18 Nordeste 33 Nordeste 0 -- -- 70
2019-10-05 00:00:00 22.5 18 Norte 33 Nordeste 0 -- -- 71
2019-10-04 23:00:00 22.6 19 Nordeste 34 Nordeste 0 -- -- 68
2019-10-04 22:00:00 22.8 18 Nordeste 36 Nordeste 0 -- -- 71
2019-10-04 21:00:00 22.8 26 Norte 42 Norte 0 -- -- 68
2019-10-04 20:00:00 23.1 22 Norte 45 Norte 0 -- -- 69
2019-10-04 19:00:00 23.8 26 Norte 50 Norte 0 -- -- 67
2019-10-04 18:00:00 24.2 31 Norte 57 Norte 0 -- -- 67
2019-10-04 17:00:00 24.2 33 Norte 54 Norte 0 -- -- 66
2019-10-04 16:00:00 24.8 33 Norte 51 Norte 0 -- -- 65
2019-10-04 15:00:00 24.8 36 Norte 57 Norte 0 -- -- 65
2019-10-04 14:00:00 25 30 Norte 50 Norte 0 -- -- 62
2019-10-04 13:00:00 24.4 32 Norte 46 Norte 0 -- -- 66
2019-10-04 12:00:00 24.3 30 Nordeste 48 Nordeste 0 -- -- 65
2019-10-04 11:00:00 24.2 22 Nordeste 54 Nordeste 0 -- -- 67
2019-10-04 10:00:00 23.2 26 Norte 44 Norte 0 -- -- 72
2019-10-04 09:00:00 22.6 22 Norte 36 Norte 0 -- -- 74
2019-10-04 08:00:00 22.2 23 Norte 39 Norte 0 -- -- 74
2019-10-04 07:00:00 22.3 17 Norte 34 Norte 0 -- -- 74
2019-10-04 06:00:00 22.3 14 Nordeste 35 Norte 0 -- -- 74
2019-10-04 05:00:00 22.2 18 Nordeste 45 Norte 0 -- -- 75
2019-10-04 04:00:00 22.4 21 Nordeste 51 Nordeste 0 -- -- 74
2019-10-04 03:00:00 22.7 30 Norte 48 Norte 0 -- -- 73
2019-10-04 02:00:00 22.6 31 Norte 47 Norte 0 -- -- 75
2019-10-04 01:00:00 22.6 24 Norte 50 Norte 0 -- -- 73
2019-10-04 00:00:00 22.7 29 Norte 59 Norte 0 -- -- 73
2019-10-03 23:00:00 22.9 32 Norte 52 Norte 0 -- -- 73
2019-10-03 22:00:00 23.1 28 Norte 48 Norte 0 -- -- 72
2019-10-03 21:00:00 23.3 31 Norte 51 Nordeste 0 -- -- 72
2019-10-03 20:00:00 23.6 28 Nordeste 49 Nordeste 0 -- -- 70
2019-10-03 19:00:00 24.2 29 Nordeste 53 Nordeste 0 -- -- 68
2019-10-03 18:00:00 26.6 23 Nordeste 48 Nordeste 0 -- -- 60
2019-10-03 17:00:00 27.8 24 Nordeste 50 Nordeste 0 -- -- 56
2019-10-03 16:00:00 28.2 22 Nordeste 46 Nordeste 0 -- -- 56
2019-10-03 15:00:00 27.6 26 Nordeste 48 Nordeste 0 -- -- 58
2019-10-03 14:00:00 29.6 24 Nordeste 45 Nordeste 0 -- -- 47
2019-10-03 13:00:00 29.5 27 Nordeste 44 Nordeste 0 -- -- 47
2019-10-03 12:00:00 29.6 24 Nordeste 44 Nordeste 0 -- -- 44
2019-10-03 11:00:00 29.6 24 Nordeste 53 Nordeste 0 -- -- 41
2019-10-03 10:00:00 29 18 Nordeste 43 Nordeste 0 -- -- 41
2019-10-03 09:00:00 27.5 22 Nordeste 46 Nordeste 0 -- -- 41
2019-10-03 08:00:00 27.7 21 Nordeste 36 Nordeste 0 -- -- 37
2019-10-03 07:00:00 28.2 14 Nordeste 39 Nordeste 0 -- -- 33
2019-10-03 06:00:00 27.8 18 Nordeste 31 Nordeste 0 -- -- 37
2019-10-03 05:00:00 24.3 4 Sudeste 21 Nordeste 0 -- -- 56
2019-10-03 04:00:00 27 11 Este 40 Nordeste 0 -- -- 43
2019-10-03 03:00:00 29.6 21 Nordeste 48 Nordeste 0 -- -- 28
2019-10-03 02:00:00 29.2 20 Nordeste 42 Nordeste 0 -- -- 27
2019-10-03 01:00:00 25 12 Sudeste 33 Este 0 -- -- 56
2019-10-03 00:00:00 24.5 13 Este 31 Nordeste 0 -- -- 64
2019-10-02 23:00:00 24.4 8 Sudeste 28 Sudeste 0 -- -- 69
2019-10-02 22:00:00 24 8 Sudeste 15 Sur 0 -- -- 75
2019-10-02 21:00:00 24.6 7 Sudeste 13 Sudeste 0 -- -- 70
2019-10-02 20:00:00 24.2 5 Sudeste 15 Sur 0 -- -- 75
2019-10-02 19:00:00 25.3 10 Sur 15 Sur 0 -- -- 74
2019-10-02 18:00:00 25.6 8 Sur 13 Sudeste 0 -- -- 74
2019-10-02 17:00:00 25.6 7 Sudeste 17 Sur 0 -- -- 73
2019-10-02 16:00:00 26.9 7 Sur 15 Sur 0 -- -- 67
2019-10-02 15:00:00 27.1 9 Sur 12 Sur 0 -- -- 69
2019-10-02 14:00:00 27 8 Sur 15 Sur 0 -- -- 64
2019-10-02 13:00:00 26.5 12 Sur 17 Sudeste 0 -- -- 64
2019-10-02 12:00:00 26.2 7 Sudoeste 11 Sur 0 -- -- 67
2019-10-02 11:00:00 26 5 Sudoeste 16 Sudoeste 0 -- -- 66
2019-10-02 10:00:00 24.8 9 Sur 17 Sur 0 -- -- 68
2019-10-02 09:00:00 24.3 8 Sur 38 Nordeste 0 -- -- 66
2019-10-02 08:00:00 29.7 26 Nordeste 43 Nordeste 0 -- -- 27
2019-10-02 07:00:00 24.6 10 Sudeste 28 Nordeste 0 -- -- 59
2019-10-02 06:00:00 24.5 8 Sur 21 Sudoeste 0 -- -- 60
2019-10-02 05:00:00 24.3 13 Sudeste 18 Sudeste 0 -- -- 63
2019-10-02 04:00:00 23.2 12 Sudeste 19 Sudeste 0 -- -- 73
2019-10-02 03:00:00 23.5 12 Sudeste 37 Sur 0 -- -- 72
2019-10-02 02:00:00 24.1 18 Sudeste 35 Este 0 -- -- 67
2019-10-02 01:00:00 24.3 10 Este 40 Sur 0 -- -- 67
2019-10-02 00:00:00 25.2 18 Sudeste 36 Sudeste 0 -- -- 58
2019-10-01 23:00:00 25.1 11 Sur 30 Sudeste 0 -- -- 63
2019-10-01 22:00:00 24.8 10 Sur 34 Sur 0 -- -- 68
2019-10-01 21:00:00 26.3 19 Sur 33 Sudeste 0 -- -- 56
2019-10-01 20:00:00 27.4 20 Sur 31 Sudeste 0 -- -- 52
2019-10-01 19:00:00 27 18 Sur 30 Sudeste 0 -- -- 61
2019-10-01 18:00:00 29 17 Sudeste 33 Sur 0 -- -- 49
2019-10-01 17:00:00 30.3 13 Sudeste 30 Este 0 -- -- 47
2019-10-01 16:00:00 31.4 14 Sudeste 36 Sudeste 0 -- -- 44
2019-10-01 15:00:00 31.3 16 Este 45 Nordeste 0 -- -- 38
2019-10-01 14:00:00 30 14 Sudeste 42 Este 0 -- -- 49
2019-10-01 13:00:00 27.9 22 Este 40 Este 0 -- -- 59
2019-10-01 12:00:00 27.5 8 Oeste 31 Sudeste 0 -- -- 60
2019-10-01 11:00:00 25.4 24 Sur 40 Sudeste 0 -- -- 65
2019-10-01 10:00:00 26.5 14 Sudeste 37 Sudeste 0 -- -- 56
2019-10-01 09:00:00 25.1 18 Sur 39 Sur 0 -- -- 61
2019-10-01 08:00:00 22.8 13 Sur 21 Sur 0 -- -- 72
2019-10-01 07:00:00 23 6 Sur 24 Sur 0 -- -- 70
2019-10-01 06:00:00 23.8 13 Sur 34 Sudeste 0 -- -- 62
2019-10-01 05:00:00 23.1 14 Sur 26 Sudoeste 0 -- -- 69
2019-10-01 04:00:00 23.7 7 Sudeste 29 Sudeste 0 -- -- 64
2019-10-01 03:00:00 24.9 9 Sudeste 43 Nordeste 0 -- -- 54
2019-10-01 02:00:00 28.6 15 Este 48 Nordeste 0 -- -- 32
2019-10-01 01:00:00 23.1 11 Sudeste 22 Sur 0 -- -- 70
2019-10-01 00:00:00 23.4 8 Sur 31 Norte 0 -- -- 70
2019-09-30 23:00:00 22.6 6 Sudeste 13 Sur 0 -- -- 78
2019-09-30 22:00:00 23.5 5 Sudoeste 21 Este 0 -- -- 73
2019-09-30 21:00:00 23.6 10 Nordeste 38 Norte 0 -- -- 71
2019-09-30 20:00:00 23.3 19 Norte 41 Norte 0 -- -- 75
2019-09-30 19:00:00 23.9 26 Norte 42 Norte 0 -- -- 73
2019-09-30 18:00:00 24.5 26 Norte 41 Norte 0 -- -- 72
2019-09-30 17:00:00 25.2 25 Norte 40 Norte 0 -- -- 70
2019-09-30 16:00:00 25.9 18 Norte 38 Nordeste 0 -- -- 67
2019-09-30 15:00:00 26.8 14 Norte 37 Nordeste 0 -- -- 63
2019-09-30 14:00:00 26.5 17 Nordeste 32 Nordeste 0 -- -- 65
2019-09-30 13:00:00 27.1 9 Sur 35 Nordeste 0 -- -- 63
2019-09-30 12:00:00 24.9 16 Nordeste 38 Norte 0 -- -- 71
2019-09-30 11:00:00 24.8 12 Sur 33 Este 0 -- -- 68
2019-09-30 10:00:00 23.3 16 Sudoeste 28 Sudeste 0 -- -- 74
2019-09-30 09:00:00 23 4 Oeste 26 Nordeste 0 -- -- 71
2019-09-30 08:00:00 22.2 6 Sur 34 Norte 0 -- -- 74
2019-09-30 07:00:00 22 14 Nordeste 37 Norte 0 -- -- 76
2019-09-30 06:00:00 21.9 17 Nordeste 48 Norte 0 -- -- 78
2019-09-30 05:00:00 21.9 31 Norte 52 Norte 0 -- -- 77
2019-09-30 04:00:00 23.1 23 Sudeste 35 Sudeste 0 -- -- 67
2019-09-30 03:00:00 22.9 6 Sudeste 31 Este 0 -- -- 69
2019-09-30 02:00:00 23.1 14 Sudeste 35 Nordeste 0 -- -- 69
2019-09-30 01:00:00 22.9 14 Este 32 Este 0 -- -- 71
2019-09-30 00:00:00 22.8 8 Este 26 Este 0 -- -- 73
2019-09-29 23:00:00 22.9 15 Nordeste 38 Nordeste 0 -- -- 73
2019-09-29 22:00:00 22.8 14 Nordeste 38 Nordeste 0 -- -- 74
2019-09-29 21:00:00 22.9 17 Nordeste 36 Nordeste 0 -- -- 76
2019-09-29 20:00:00 23.1 22 Nordeste 40 Nordeste 0 -- -- 75
2019-09-29 19:00:00 24.1 23 Nordeste 38 Nordeste 0 -- -- 73
2019-09-29 18:00:00 24.8 20 Nordeste 32 Este 0 -- -- 70
2019-09-29 17:00:00 26.9 14 Nordeste 29 Este 0 -- -- 61
2019-09-29 16:00:00 28.4 10 Nordeste 26 Este 0 -- -- 56
2019-09-29 15:00:00 28.2 12 Nordeste 25 Nordeste 0 -- -- 56
2019-09-29 14:00:00 27.9 12 Nordeste 24 Nordeste 0 -- -- 57
2019-09-29 13:00:00 26.4 15 Este 34 Nordeste 0 -- -- 60
2019-09-29 12:00:00 25.5 15 Nordeste 33 Este 0 -- -- 63
2019-09-29 11:00:00 24.7 15 Nordeste 37 Nordeste 0 -- -- 64
2019-09-29 10:00:00 23.4 21 Nordeste 37 Nordeste 0 -- -- 69
2019-09-29 09:00:00 22.5 19 Nordeste 41 Nordeste 0 -- -- 72
2019-09-29 08:00:00 22 21 Nordeste 44 Nordeste 0 -- -- 73
2019-09-29 07:00:00 22 25 Nordeste 50 Nordeste 0 -- -- 74
2019-09-29 06:00:00 22 26 Nordeste 46 Nordeste 0 -- -- 74
2019-09-29 05:00:00 22.1 22 Nordeste 47 Nordeste 0 -- -- 74
2019-09-29 04:00:00 22.1 24 Nordeste 43 Nordeste 0 -- -- 74
2019-09-29 03:00:00 22.1 19 Nordeste 49 Nordeste 0 -- -- 75
2019-09-29 02:00:00 22.3 19 Nordeste 44 Nordeste 0 -- -- 73
2019-09-29 01:00:00 22.3 19 Nordeste 41 Nordeste 0 -- -- 74
2019-09-29 00:00:00 22.4 22 Nordeste 40 Este 0 -- -- 72
2019-09-28 23:00:00 22.4 18 Nordeste 47 Nordeste 0 -- -- 72
2019-09-28 22:00:00 22.4 21 Nordeste 41 Nordeste 0 -- -- 72
2019-09-28 21:00:00 22.6 20 Nordeste 36 Nordeste 0 -- -- 72
2019-09-28 20:00:00 22.9 20 Nordeste 38 Nordeste 0 -- -- 70
2019-09-28 19:00:00 24.1 17 Nordeste 35 Nordeste 0 -- -- 67
2019-09-28 18:00:00 24.5 24 Nordeste 43 Nordeste 0 -- -- 65
2019-09-28 17:00:00 24.8 29 Nordeste 51 Nordeste 0 -- -- 62
2019-09-28 16:00:00 25.5 27 Nordeste 51 Norte 0 -- -- 60
2019-09-28 15:00:00 25.7 26 Nordeste 61 Nordeste 0 -- -- 59
2019-09-28 14:00:00 25.6 26 Nordeste 56 Nordeste 0 -- -- 60
2019-09-28 13:00:00 25.1 28 Nordeste 58 Nordeste 0 -- -- 61
2019-09-28 12:00:00 24.7 28 Nordeste 49 Nordeste 0 -- -- 62
2019-09-28 11:00:00 24.5 27 Nordeste 48 Nordeste 0 -- -- 63
2019-09-28 10:00:00 23.8 22 Nordeste 42 Nordeste 0 -- -- 63
2019-09-28 09:00:00 22.6 28 Nordeste 50 Nordeste 0 -- -- 65
2019-09-28 08:00:00 22 30 Nordeste 45 Nordeste 0 -- -- 73
2019-09-28 07:00:00 22.1 28 Nordeste 50 Nordeste 0 -- -- 70
2019-09-28 06:00:00 22 28 Nordeste 46 Nordeste 0 -- -- 71
2019-09-28 05:00:00 22 25 Nordeste 42 Nordeste 0 -- -- 73
2019-09-28 04:00:00 22 25 Nordeste 40 Nordeste 0 -- -- 74
2019-09-28 03:00:00 22.1 24 Nordeste 42 Nordeste 0 -- -- 75
2019-09-28 02:00:00 22.4 21 Nordeste 42 Nordeste 0 -- -- 69
2019-09-28 01:00:00 22.5 22 Nordeste 43 Nordeste 0 -- -- 69
2019-09-28 00:00:00 22.5 26 Nordeste 44 Nordeste 0 -- -- 71
2019-09-27 23:00:00 22.5 19 Nordeste 39 Nordeste 0 -- -- 71
2019-09-27 22:00:00 22.8 23 Nordeste 44 Nordeste 0 -- -- 68
2019-09-27 21:00:00 22.8 23 Nordeste 58 Norte 0 -- -- 68
2019-09-27 20:00:00 23.2 28 Nordeste 42 Nordeste 0 -- -- 69
2019-09-27 19:00:00 24.1 25 Nordeste 53 Nordeste 0 -- -- 64
2019-09-27 18:00:00 24.9 27 Nordeste 46 Nordeste 0 -- -- 61
2019-09-27 17:00:00 25.3 28 Nordeste 44 Nordeste 0 -- -- 60
2019-09-27 16:00:00 25.6 25 Nordeste 43 Nordeste 0 -- -- 59
2019-09-27 15:00:00 25.9 22 Norte 50 Nordeste 0 -- -- 56
2019-09-27 14:00:00 25.6 23 Nordeste 41 Este 0 -- -- 59
2019-09-27 13:00:00 25.4 24 Nordeste 45 Nordeste 0 -- -- 58
2019-09-27 12:00:00 24.9 25 Nordeste 49 Nordeste 0 -- -- 60
2019-09-27 11:00:00 24.2 32 Nordeste 50 Nordeste 0 -- -- 62
2019-09-27 10:00:00 24 25 Nordeste 42 Nordeste 0 -- -- 62
2019-09-27 09:00:00 22.8 28 Nordeste 41 Nordeste 0 -- -- 69
2019-09-27 08:00:00 22.5 22 Nordeste 39 Nordeste 0 -- -- 69
2019-09-27 07:00:00 22.3 20 Nordeste 35 Nordeste 0 -- -- 74
2019-09-27 06:00:00 22.4 18 Nordeste 40 Nordeste 0 -- -- 70
2019-09-27 05:00:00 22.5 20 Nordeste 35 Nordeste 0 -- -- 70
2019-09-27 04:00:00 22.5 19 Nordeste 38 Norte 0 -- -- 71
2019-09-27 03:00:00 22.6 21 Nordeste 44 Norte 0 -- -- 70
2019-09-27 02:00:00 22.7 24 Nordeste 46 Nordeste 0 -- -- 70
2019-09-27 01:00:00 22.9 22 Nordeste 41 Nordeste 0 -- -- 70
2019-09-27 00:00:00 22.8 23 Nordeste 39 Nordeste 0 -- -- 69
2019-09-26 23:00:00 22.8 20 Nordeste 42 Nordeste 0 -- -- 69
2019-09-26 22:00:00 23.3 19 Nordeste 36 Nordeste 0 -- -- 67
2019-09-26 21:00:00 23.1 24 Nordeste 43 Nordeste 0 -- -- 65
2019-09-26 20:00:00 23.4 22 Nordeste 45 Nordeste 0 -- -- 67
2019-09-26 19:00:00 24.3 28 Nordeste 53 Nordeste 0 -- -- 61
2019-09-26 18:00:00 24.7 29 Nordeste 51 Nordeste 0 -- -- 61
2019-09-26 17:00:00 25.4 23 Nordeste 55 Nordeste 0 -- -- 64
2019-09-26 16:00:00 25.5 31 Nordeste 51 Nordeste 0 -- -- 59
2019-09-26 15:00:00 25.6 29 Nordeste 48 Nordeste 0 -- -- 58
2019-09-26 14:00:00 25.6 24 Nordeste 48 Nordeste 0 -- -- 61
2019-09-26 13:00:00 24.9 35 Nordeste 58 Nordeste 0 -- -- 64
2019-09-26 12:00:00 25.9 26 Nordeste 59 Nordeste 0 -- -- 57
2019-09-26 11:00:00 24.8 31 Nordeste 52 Nordeste 0 -- -- 59
2019-09-26 10:00:00 23.6 28 Nordeste 48 Nordeste 0 -- -- 68
2019-09-26 09:00:00 23.1 23 Nordeste 51 Nordeste 0 -- -- 70
2019-09-26 08:00:00 22.5 24 Nordeste 44 Nordeste 0 -- -- 72
2019-09-26 07:00:00 22.6 26 Nordeste 44 Norte 0 -- -- 71
2019-09-26 06:00:00 22.9 23 Nordeste 42 Nordeste 0 -- -- 68
2019-09-26 05:00:00 22.9 21 Nordeste 41 Nordeste 0 -- -- 67
2019-09-26 04:00:00 22.8 22 Nordeste 42 Nordeste 0 -- -- 67
2019-09-26 03:00:00 22.7 23 Nordeste 46 Nordeste 0 -- -- 70
2019-09-26 02:00:00 22.9 29 Nordeste 50 Nordeste 0 -- -- 67
2019-09-26 01:00:00 22.9 22 Norte 42 Nordeste 0 -- -- 69
2019-09-26 00:00:00 23.1 19 Norte 45 Nordeste 0 -- -- 67
2019-09-25 23:00:00 23 17 Nordeste 46 Nordeste 0 -- -- 68
2019-09-25 22:00:00 23 15 Nordeste 44 Nordeste 0 -- -- 71
2019-09-25 21:00:00 23.1 21 Norte 38 Nordeste 0 -- -- 72
2019-09-25 20:00:00 23.3 23 Nordeste 46 Nordeste 0 -- -- 69
2019-09-25 19:00:00 24.1 27 Nordeste 46 Nordeste 0 -- -- 67
2019-09-25 18:00:00 24.9 22 Nordeste 43 Nordeste 0 -- -- 62
2019-09-25 17:00:00 25.4 24 Nordeste 45 Norte 0 -- -- 62
2019-09-25 16:00:00 25.6 24 Nordeste 47 Norte 0 -- -- 61
2019-09-25 15:00:00 25.4 24 Nordeste 46 Norte 0 -- -- 59
2019-09-25 14:00:00 25 28 Norte 49 Nordeste 0 -- -- 62
2019-09-25 13:00:00 24.7 30 Norte 47 Nordeste 0 -- -- 61
2019-09-25 12:00:00 24.5 27 Norte 45 Norte 0 -- -- 61
2019-09-25 11:00:00 24.1 19 Nordeste 42 Nordeste 0 -- -- 63
2019-09-25 10:00:00 23.3 22 Nordeste 40 Nordeste 0 -- -- 67
2019-09-25 09:00:00 22.7 20 Nordeste 37 Nordeste 0 -- -- 68
2019-09-25 08:00:00 22 18 Nordeste 33 Nordeste 0 -- -- 69
2019-09-25 07:00:00 22.2 17 Nordeste 32 Nordeste 0 -- -- 71
2019-09-25 06:00:00 22.2 16 Nordeste 29 Nordeste 0 -- -- 71
2019-09-25 05:00:00 22 15 Nordeste 34 Nordeste 0 -- -- 71
2019-09-25 04:00:00 22.3 19 Nordeste 33 Nordeste 0 -- -- 71
2019-09-25 03:00:00 22.2 16 Nordeste 40 Nordeste 0 -- -- 68
2019-09-25 02:00:00 22.6 19 Nordeste 35 Nordeste 0 -- -- 64
2019-09-25 01:00:00 22.5 19 Nordeste 36 Nordeste 0 -- -- 65
2019-09-25 00:00:00 22.5 19 Nordeste 39 Nordeste 0 -- -- 65
2019-09-24 23:00:00 22.7 21 Nordeste 40 Nordeste 0 -- -- 66
2019-09-24 22:00:00 22.6 21 Nordeste 37 Nordeste 0 -- -- 65
2019-09-24 21:00:00 22.7 20 Nordeste 35 Nordeste 0 -- -- 64
2019-09-24 20:00:00 23 21 Nordeste 39 Nordeste 0 -- -- 64
2019-09-24 19:00:00 23.7 21 Nordeste 39 Nordeste 0 -- -- 64
2019-09-24 18:00:00 24 26 Nordeste 45 Nordeste 0 -- -- 62
2019-09-24 17:00:00 24.9 26 Nordeste 41 Nordeste 0 -- -- 57
2019-09-24 16:00:00 25.3 19 Nordeste 44 Nordeste 0 -- -- 57
2019-09-24 15:00:00 25.3 24 Nordeste 42 Nordeste 0 -- -- 57
2019-09-24 14:00:00 25.2 23 Nordeste 41 Nordeste 0 -- -- 56
2019-09-24 13:00:00 25 20 Nordeste 40 Nordeste 0 -- -- 57
2019-09-24 12:00:00 24.4 24 Nordeste 39 Nordeste 0 -- -- 63
2019-09-24 11:00:00 24.3 23 Nordeste 37 Nordeste 0 -- -- 64
2019-09-24 10:00:00 22.6 19 Nordeste 31 Nordeste 0 -- -- 71
2019-09-24 09:00:00 22 16 Nordeste 30 Nordeste 0 -- -- 73
2019-09-24 08:00:00 22 20 Nordeste 40 Norte 0 -- -- 72
2019-09-24 07:00:00 22.2 26 Nordeste 40 Nordeste 0 -- -- 73
2019-09-24 06:00:00 22.1 24 Nordeste 42 Nordeste 0 -- -- 74
2019-09-24 05:00:00 22.9 13 Nordeste 35 Nordeste 0 -- -- 63
2019-09-24 04:00:00 22.1 19 Nordeste 42 Nordeste 0 -- -- 70
2019-09-24 03:00:00 22.2 22 Nordeste 37 Nordeste 0 -- -- 72
2019-09-24 02:00:00 22.5 19 Norte 38 Nordeste 0 -- -- 66
2019-09-24 01:00:00 22.7 22 Nordeste 39 Nordeste 0 -- -- 66
2019-09-24 00:00:00 22.8 22 Nordeste 40 Nordeste 0 -- -- 66
2019-09-23 23:00:00 23 17 Nordeste 37 Norte 0 -- -- 63
2019-09-23 22:00:00 22.8 21 Nordeste 39 Nordeste 0 -- -- 71
2019-09-23 21:00:00 23 19 Nordeste 38 Nordeste 0 -- -- 70
2019-09-23 20:00:00 23.7 17 Nordeste 37 Nordeste 0 -- -- 65
2019-09-23 19:00:00 24.9 21 Nordeste 39 Nordeste 0 -- -- 60
2019-09-23 18:00:00 25.1 24 Nordeste 47 Nordeste 0 -- -- 56
2019-09-23 17:00:00 25.2 25 Nordeste 44 Nordeste 0 -- -- 59
2019-09-23 16:00:00 25.1 27 Nordeste 47 Nordeste 0 -- -- 56
2019-09-23 15:00:00 25 33 Nordeste 48 Nordeste 0 -- -- 61
2019-09-23 14:00:00 25.8 24 Nordeste 45 Nordeste 0 -- -- 56
2019-09-23 13:00:00 25.5 24 Nordeste 50 Nordeste 0 -- -- 60
2019-09-23 12:00:00 24.7 21 Norte 41 Nordeste 0 -- -- 63
2019-09-23 11:00:00 23.9 26 Nordeste 39 Nordeste 0 -- -- 66
2019-09-23 10:00:00 23.1 22 Nordeste 37 Nordeste 0 -- -- 69
2019-09-23 09:00:00 22.5 17 Nordeste 31 Nordeste 0 -- -- 74
2019-09-23 08:00:00 22.2 18 Nordeste 31 Este 0 -- -- 74
2019-09-23 07:00:00 22.1 19 Nordeste 34 Nordeste 0 -- -- 74
2019-09-23 06:00:00 22.2 18 Nordeste 29 Norte 0 -- -- 77
2019-09-23 05:00:00 22.4 17 Nordeste 28 Nordeste 0 -- -- 80
2019-09-23 04:00:00 22.4 15 Nordeste 30 Nordeste 0 -- -- 80
2019-09-23 03:00:00 22.5 17 Nordeste 27 Norte 0 -- -- 80
2019-09-23 02:00:00 23.1 17 Nordeste 28 Nordeste 0 -- -- 78
2019-09-23 01:00:00 23 16 Nordeste 32 Nordeste 0 -- -- 80
2019-09-23 00:00:00 22.2 18 Nordeste 42 Nordeste 0 -- -- 86
2019-09-22 23:00:00 22.4 17 Nordeste 30 Nordeste 0 -- -- 84
2019-09-22 22:00:00 23 15 Nordeste 40 Norte 0 -- -- 83
2019-09-22 21:00:00 22.6 22 Nordeste 33 Norte 0.2 -- -- 84
2019-09-22 20:00:00 23.8 19 Nordeste 35 Nordeste 0 -- -- 81
2019-09-22 19:00:00 25.6 22 Nordeste 37 Norte 0 -- -- 71
2019-09-22 18:00:00 26.3 23 Norte 39 Norte 0 -- -- 70
2019-09-22 17:00:00 25.1 29 Norte 38 Norte 0 -- -- 77
2019-09-22 16:00:00 26.1 22 Norte 41 Norte 0 -- -- 69
2019-09-22 15:00:00 25.6 30 Norte 43 Norte 0 -- -- 72
2019-09-22 14:00:00 25.3 32 Norte 48 Norte 0 -- -- 71
2019-09-22 13:00:00 25.8 25 Norte 39 Norte 0 -- -- 68
2019-09-22 12:00:00 24.6 27 Norte 35 Norte 0 -- -- 73
2019-09-22 11:00:00 24.6 25 Norte 33 Norte 0 -- -- 72
2019-09-22 10:00:00 24.9 10 Nordeste 24 Norte 0 -- -- 68
2019-09-22 09:00:00 23.6 13 Norte 23 Nordeste 0 -- -- 70
2019-09-22 08:00:00 22.8 12 Nordeste 22 Norte 0 -- -- 72
2019-09-22 07:00:00 22.6 16 Nordeste 22 Norte 0 -- -- 75
2019-09-22 06:00:00 22.2 11 Nordeste 19 Nordeste 0 -- -- 74
2019-09-22 05:00:00 22.8 12 Nordeste 21 Nordeste 0 -- -- 73
2019-09-22 04:00:00 22.5 7 Nordeste 18 Nordeste 0 -- -- 70
2019-09-22 03:00:00 22.8 9 Norte 18 Norte 0 -- -- 71
2019-09-22 02:00:00 22.8 11 Nordeste 18 Nordeste 0 -- -- 70
2019-09-22 01:00:00 22.9 10 Nordeste 17 Nordeste 0 -- -- 73
2019-09-22 00:00:00 22.9 11 Nordeste 18 Nordeste 0 -- -- 75
2019-09-21 23:00:00 23.3 9 Nordeste 17 Nordeste 0 -- -- 71
2019-09-21 22:00:00 23.6 10 Nordeste 22 Nordeste 0 -- -- 71
2019-09-21 21:00:00 23.5 16 Norte 26 Norte 0 -- -- 70
2019-09-21 20:00:00 24.8 9 Nordeste 29 Nordeste 0 -- -- 60
2019-09-21 19:00:00 24.9 17 Norte 29 Norte 0 -- -- 65
2019-09-21 18:00:00 25.2 19 Norte 33 Norte 0 -- -- 66
2019-09-21 17:00:00 25.2 19 Norte 35 Norte 0 -- -- 67
2019-09-21 16:00:00 24.5 22 Norte 30 Norte 0 -- -- 74
2019-09-21 15:00:00 25.1 22 Norte 35 Norte 0 -- -- 69
2019-09-21 14:00:00 24.6 25 Norte 30 Norte 0 -- -- 69
2019-09-21 13:00:00 24.4 26 Norte 31 Norte 0 -- -- 66
2019-09-21 12:00:00 24.3 21 Norte 33 Norte 0 -- -- 69
2019-09-21 11:00:00 23.5 22 Norte 30 Norte 0 -- -- 75
2019-09-21 10:00:00 23.1 17 Norte 21 Norte 0 -- -- 75
2019-09-21 09:00:00 23.2 4 Este 11 Este 0 -- -- 61
2019-09-21 08:00:00 20.6 5 Nordeste 10 Este 0 -- -- 62
2019-09-21 07:00:00 21 4 Este 13 Nordeste 0 -- -- 65
2019-09-21 06:00:00 21.4 9 Nordeste 15 Nordeste 0 -- -- 71
2019-09-21 05:00:00 21.7 6 Nordeste 17 Sudeste 0 -- -- 69
2019-09-21 04:00:00 22.1 9 Este 22 Nordeste 0 -- -- 68
2019-09-21 03:00:00 22 5 Nordeste 17 Nordeste 0 -- -- 70
2019-09-21 02:00:00 22.4 9 Norte 17 Norte 0 -- -- 70
2019-09-21 01:00:00 22.6 8 Nordeste 20 Nordeste 0 -- -- 70
2019-09-21 00:00:00 22.9 6 Nordeste 25 Nordeste 0 -- -- 68
2019-09-20 23:00:00 23 10 Norte 30 Norte 0 -- -- 68
2019-09-20 22:00:00 23 17 Nordeste 34 Nordeste 0 -- -- 67
2019-09-20 21:00:00 23 18 Norte 36 Norte 0 -- -- 71
2019-09-20 20:00:00 23.4 18 Norte 48 Norte 0 -- -- 68
2019-09-20 19:00:00 24.6 31 Norte 42 Norte 0 -- -- 62
2019-09-20 18:00:00 25.1 22 Norte 39 Nordeste 0 -- -- 60
2019-09-20 17:00:00 24.9 30 Norte 46 Norte 0 -- -- 63
2019-09-20 16:00:00 26.2 22 Norte 43 Norte 0 -- -- 54
2019-09-20 15:00:00 24.8 30 Norte 54 Norte 0 -- -- 65
2019-09-20 14:00:00 24.1 34 Norte 45 Norte 0 -- -- 67
2019-09-20 13:00:00 25.6 17 Norte 32 Norte 0 -- -- 61
2019-09-20 12:00:00 24.3 19 Norte 39 Norte 0 -- -- 67
2019-09-20 11:00:00 23.9 10 Sudeste 32 Nordeste 0 -- -- 63
2019-09-20 10:00:00 23.7 20 Nordeste 36 Nordeste 0 -- -- 67
2019-09-20 09:00:00 22.9 19 Nordeste 36 Norte 0 -- -- 68
2019-09-20 08:00:00 22.2 19 Norte 31 Norte 0 -- -- 66
2019-09-20 07:00:00 22.1 18 Nordeste 31 Norte 0 -- -- 70
2019-09-20 06:00:00 22.1 16 Nordeste 35 Nordeste 0 -- -- 71
2019-09-20 05:00:00 22.2 19 Norte 31 Nordeste 0 -- -- 70
2019-09-20 04:00:00 22.2 21 Nordeste 37 Nordeste 0 -- -- 71
2019-09-20 03:00:00 22.1 19 Nordeste 39 Nordeste 0 -- -- 72
2019-09-20 02:00:00 22.5 19 Nordeste 33 Nordeste 0 -- -- 72
2019-09-20 01:00:00 22.1 20 Nordeste 37 Norte 0 -- -- 74
2019-09-20 00:00:00 22.3 22 Nordeste 37 Nordeste 0 -- -- 73
2019-09-19 23:00:00 22.4 19 Nordeste 35 Nordeste 0 -- -- 75
2019-09-19 22:00:00 22.6 21 Nordeste 35 Nordeste 0 -- -- 74
2019-09-19 21:00:00 22.7 23 Norte 43 Norte 0 -- -- 75
2019-09-19 20:00:00 23.1 24 Norte 44 Norte 0 -- -- 73
2019-09-19 19:00:00 24.2 26 Norte 39 Norte 0 -- -- 68
2019-09-19 18:00:00 25 24 Norte 44 Nordeste 0 -- -- 66
2019-09-19 17:00:00 25.6 23 Norte 42 Nordeste 0 -- -- 62
2019-09-19 16:00:00 25.3 30 Norte 45 Norte 0 -- -- 61
2019-09-19 15:00:00 25.4 26 Norte 49 Norte 0 -- -- 62
2019-09-19 14:00:00 25.2 32 Norte 49 Norte 0 -- -- 61
2019-09-19 13:00:00 25 31 Norte 48 Norte 0 -- -- 64
2019-09-19 12:00:00 24.5 35 Norte 52 Norte 0 -- -- 60
2019-09-19 11:00:00 24.3 26 Norte 45 Norte 0 -- -- 62
2019-09-19 10:00:00 23.1 26 Norte 40 Norte 0 -- -- 69
2019-09-19 09:00:00 22.7 24 Norte 39 Norte 0 -- -- 73
2019-09-19 08:00:00 22.1 20 Norte 38 Nordeste 0 -- -- 71
2019-09-19 07:00:00 22.1 21 Norte 37 Nordeste 0 -- -- 71
2019-09-19 06:00:00 22 18 Norte 34 Nordeste 0 -- -- 74
2019-09-19 05:00:00 22 19 Nordeste 40 Nordeste 0 -- -- 74
2019-09-19 04:00:00 22 23 Nordeste 44 Nordeste 0 -- -- 74
2019-09-19 03:00:00 22.1 26 Nordeste 38 Nordeste 0 -- -- 72
2019-09-19 02:00:00 22.1 22 Nordeste 46 Nordeste 0 -- -- 72
2019-09-19 01:00:00 22.2 22 Nordeste 39 Nordeste 0 -- -- 75
2019-09-19 00:00:00 22.3 18 Nordeste 42 Nordeste 0 -- -- 74
2019-09-18 23:00:00 22.5 25 Nordeste 41 Nordeste 0 -- -- 73
2019-09-18 22:00:00 22.8 17 Nordeste 45 Nordeste 0 -- -- 69
2019-09-18 21:00:00 22.9 27 Nordeste 47 Nordeste 0 -- -- 69
2019-09-18 20:00:00 23.2 28 Nordeste 51 Nordeste 0 -- -- 70
2019-09-18 19:00:00 24.3 27 Nordeste 49 Nordeste 0 -- -- 65
2019-09-18 18:00:00 25.2 24 Nordeste 49 Nordeste 0 -- -- 62
2019-09-18 17:00:00 25.6 28 Nordeste 46 Norte 0 -- -- 62
2019-09-18 16:00:00 25.4 30 Nordeste 51 Nordeste 0 -- -- 62
2019-09-18 15:00:00 25.7 27 Nordeste 50 Nordeste 0 -- -- 58
2019-09-18 14:00:00 25.6 27 Nordeste 55 Nordeste 0 -- -- 58
2019-09-18 13:00:00 25.1 30 Nordeste 51 Nordeste 0 -- -- 60
2019-09-18 12:00:00 24.7 28 Nordeste 48 Nordeste 0 -- -- 61
2019-09-18 11:00:00 24.6 19 Nordeste 44 Nordeste 0 -- -- 60
2019-09-18 10:00:00 23.6 19 Nordeste 40 Nordeste 0 -- -- 62
2019-09-18 09:00:00 22.8 16 Este 42 Este 0 -- -- 64
2019-09-18 08:00:00 22 16 Este 45 Este 0 -- -- 67
2019-09-18 07:00:00 21.8 15 Nordeste 40 Este 0 -- -- 71
2019-09-18 06:00:00 21.9 22 Nordeste 40 Nordeste 0 -- -- 72
2019-09-18 05:00:00 21.9 17 Nordeste 36 Nordeste 0 -- -- 74
2019-09-18 04:00:00 22 18 Nordeste 42 Nordeste 0 -- -- 74
2019-09-18 03:00:00 22.1 19 Nordeste 40 Nordeste 0 -- -- 73
2019-09-18 02:00:00 22.1 11 Nordeste 27 Nordeste 0 -- -- 74
2019-09-18 01:00:00 22.2 10 Nordeste 31 Nordeste 0 -- -- 73
2019-09-18 00:00:00 22.3 17 Nordeste 32 Este 0 -- -- 74
2019-09-17 23:00:00 22.5 15 Nordeste 38 Nordeste 0 -- -- 72
2019-09-17 22:00:00 22.6 16 Nordeste 39 Nordeste 0 -- -- 73
2019-09-17 21:00:00 22.7 19 Nordeste 40 Nordeste 0 -- -- 73
2019-09-17 20:00:00 23.1 20 Nordeste 41 Nordeste 0 -- -- 71